Weather History for Sand Point, AK

Change the Weather History Date:

Saturday, May 25, 2013

  Actual Average Record
Temperature  
Mean Temperature 42 °F -  
Max Temperature 42 °F 45 °F 64 °F (2006)
Min Temperature 41 °F 37 °F 33 °F (2001)
Degree Days  
Heating Degree Days 24    
Moisture  
Dew Point 41 °F    
Average Humidity 95    
Maximum Humidity 100    
Minimum Humidity 93    
Precipitation  
Precipitation 0.00 in - - ()
Sea Level Pressure  
Sea Level Pressure 29.66 in    
Wind  
Wind Speed 7 mph (NE)    
Max Wind Speed 15 mph    
Max Gust Speed 29 mph    
Visibility 8 miles    
Events      
Averages and records for this station are not official NWS values.
T = Trace of Precipitation, MM = Missing Value Source: NWS Daily Summary

Daily Weather History Graph

Daily Weather History Graph

Search for Another Location

Airport:

Trip Planner

Search our weather history database for the weather conditions in past years. The results will help you decide how hot, cold, wet, or windy it might be!

Date:

Astronomy

May. 25, 2013 Rise Set
Actual Time 6:16 AM AKDT 11:02 PM AKDT
Civil Twilight 5:23 AM AKDT 11:55 PM AKDT
Nautical Twilight 3:54 AM AKDT 1:27 AM AKDT
Astronomical Twilight Sun does not rise Sun does not rise
Moon 11:59 PM AKDT (5/25) 6:58 AM AKDT (5/25)
Length of Visible Light 18h 31m
Length of Day
16h 46m
Full, 99% of the Moon is Illuminated
May 25
Full
May 31
Last Quarter
Jun 8
New
Jun 16
First Quarter
Jun 23
Full

Hourly Weather History & Observations

Time (AKDT) Temp. Windchill Dew Point Humidity Pressure Visibility Wind Dir Wind Speed Gust Speed Precip Events Conditions
12:16 AM 41.0 °F 35.8 °F 41.0 °F 100% 29.85 in 9.0 mi East 8.1 mph - N/A   Overcast
12:36 AM 42.8 °F 38.6 °F 41.0 °F 93% 29.85 in 10.0 mi East 6.9 mph - N/A   Overcast
12:56 AM 41.0 °F 38.0 °F 39.2 °F 93% 29.84 in 7.0 mi ENE 4.6 mph - N/A   Overcast
1:16 AM 41.0 °F 39.0 °F 39.2 °F 93% 29.83 in 10.0 mi NE 3.5 mph - N/A   Overcast
1:36 AM 41.0 °F 38.0 °F 39.2 °F 93% 29.83 in 9.0 mi ESE 4.6 mph - N/A   Overcast
1:56 AM 42.8 °F 38.6 °F 41.0 °F 93% 29.82 in 9.0 mi ENE 6.9 mph - N/A   Overcast
2:16 AM 42.8 °F 39.3 °F 41.0 °F 93% 29.80 in 10.0 mi East 5.8 mph - N/A   Overcast
2:36 AM 42.8 °F 39.3 °F 41.0 °F 93% 29.79 in 7.0 mi NE 5.8 mph - N/A   Overcast
2:56 AM 42.8 °F 38.6 °F 41.0 °F 93% 29.78 in 7.0 mi ENE 6.9 mph - N/A   Overcast
3:16 AM 42.8 °F 39.3 °F 41.0 °F 93% 29.77 in 5.0 mi NE 5.8 mph - N/A   Overcast
3:36 AM 42.8 °F 39.3 °F 41.0 °F 93% 29.76 in 6.0 mi NE 5.8 mph - N/A   Overcast
3:56 AM 42.8 °F 37.5 °F 41.0 °F 93% 29.75 in 10.0 mi ENE 9.2 mph - N/A   Overcast
4:16 AM 42.8 °F 39.3 °F 41.0 °F 93% 29.75 in 10.0 mi NE 5.8 mph 20.7 mph N/A   Overcast
4:36 AM 42.8 °F 40.1 °F 41.0 °F 93% 29.74 in 10.0 mi NE 4.6 mph - N/A   Overcast
4:56 AM 42.8 °F 37.0 °F 41.0 °F 93% 29.74 in 10.0 mi ENE 10.4 mph - N/A   Overcast
5:16 AM 42.8 °F 40.1 °F 41.0 °F 93% 29.73 in 8.0 mi East 4.6 mph - N/A   Overcast
5:36 AM 42.8 °F 40.1 °F 41.0 °F 93% 29.73 in 6.0 mi NE 4.6 mph - N/A   Overcast
5:56 AM 42.8 °F 38.6 °F 41.0 °F 93% 29.72 in 5.0 mi ENE 6.9 mph - N/A   Overcast
6:16 AM 42.8 °F 39.3 °F 41.0 °F 93% 29.71 in 7.0 mi ENE 5.8 mph - N/A   Overcast
6:36 AM 42.8 °F 38.0 °F 41.0 °F 93% 29.70 in 7.0 mi ENE 8.1 mph - N/A   Overcast
6:56 AM 42.8 °F 39.3 °F 41.0 °F 93% 29.69 in 4.0 mi ENE 5.8 mph - N/A   Overcast
7:16 AM 42.8 °F 39.3 °F 41.0 °F 93% 29.68 in 4.0 mi NE 5.8 mph - N/A   Overcast
7:36 AM 42.8 °F 40.1 °F 41.0 °F 93% 29.68 in 6.0 mi NE 4.6 mph - N/A   Overcast
7:56 AM 42.8 °F 40.1 °F 41.0 °F 93% 29.67 in 6.0 mi NE 4.6 mph 20.7 mph N/A   Overcast
8:16 AM 42.8 °F 41.1 °F 41.0 °F 93% 29.67 in 6.0 mi ESE 3.5 mph - N/A   Overcast
8:36 AM 42.8 °F 38.0 °F 41.0 °F 93% 29.66 in 5.0 mi ENE 8.1 mph - N/A   Overcast
8:56 AM 42.8 °F 36.6 °F 41.0 °F 93% 29.66 in 6.0 mi ENE 11.5 mph 20.7 mph N/A   Overcast
9:16 AM 42.8 °F 41.1 °F 41.0 °F 93% 29.65 in 6.0 mi SE 3.5 mph - N/A   Overcast
9:36 AM 42.8 °F - 41.0 °F 93% 29.65 in 6.0 mi Calm Calm - N/A   Overcast
9:56 AM 42.8 °F 39.3 °F 41.0 °F 93% 29.64 in 7.0 mi East 5.8 mph - N/A   Overcast
10:16 AM 42.8 °F 38.0 °F 41.0 °F 93% 29.64 in 7.0 mi ENE 8.1 mph 24.2 mph N/A   Overcast
10:36 AM 42.8 °F 38.6 °F 41.0 °F 93% 29.63 in 7.0 mi NE 6.9 mph - N/A   Overcast
10:56 AM 42.8 °F 37.0 °F 41.0 °F 93% 29.63 in 7.0 mi ENE 10.4 mph 19.6 mph N/A   Overcast
11:16 AM 42.8 °F 37.5 °F 41.0 °F 93% 29.62 in 7.0 mi NE 9.2 mph 20.7 mph N/A   Overcast
11:36 AM 42.8 °F 37.0 °F 42.8 °F 100% 29.62 in 7.0 mi ENE 10.4 mph 19.6 mph N/A   Overcast
11:56 AM 42.8 °F 37.0 °F 42.8 °F 100% 29.62 in 8.0 mi ENE 10.4 mph 25.3 mph N/A   Overcast
12:16 PM 42.8 °F 35.4 °F 42.8 °F 100% 29.63 in 8.0 mi ENE 15.0 mph 27.6 mph N/A   Overcast
12:36 PM 42.8 °F 36.6 °F 42.8 °F 100% 29.62 in 9.0 mi NE 11.5 mph 23.0 mph N/A   Overcast
12:56 PM 42.8 °F 38.0 °F 42.8 °F 100% 29.63 in 9.0 mi NNE 8.1 mph 24.2 mph N/A   Overcast
1:16 PM 42.8 °F 38.6 °F 42.8 °F 100% 29.62 in 9.0 mi ENE 6.9 mph 20.7 mph N/A   Overcast
1:36 PM 42.8 °F 37.5 °F 42.8 °F 100% 29.62 in 9.0 mi ENE 9.2 mph 21.9 mph N/A   Overcast
1:56 PM 42.8 °F 36.6 °F 42.8 °F 100% 29.61 in 7.0 mi ENE 11.5 mph 21.9 mph N/A   Overcast
2:16 PM 42.8 °F 37.5 °F 42.8 °F 100% 29.61 in 7.0 mi ENE 9.2 mph 21.9 mph N/A   Overcast
2:36 PM 42.8 °F 37.5 °F 42.8 °F 100% 29.61 in 7.0 mi NE 9.2 mph 18.4 mph N/A   Overcast
2:56 PM 42.8 °F 38.6 °F 42.8 °F 100% 29.61 in 7.0 mi NNE 6.9 mph 23.0 mph N/A   Overcast
3:16 PM 42.8 °F 38.6 °F 42.8 °F 100% 29.61 in 7.0 mi East 6.9 mph - N/A   Overcast
3:36 PM 42.8 °F 37.0 °F 41.0 °F 93% 29.61 in 8.0 mi NE 10.4 mph - N/A   Overcast
3:56 PM 42.8 °F 40.1 °F 42.8 °F 100% 29.61 in 8.0 mi East 4.6 mph - N/A   Overcast
4:16 PM 42.8 °F - 42.8 °F 100% 29.61 in 8.0 mi Calm Calm - N/A   Overcast
4:36 PM 42.8 °F 38.6 °F 42.8 °F 100% 29.61 in 7.0 mi NE 6.9 mph - N/A   Overcast
4:56 PM 42.8 °F 38.6 °F 42.8 °F 100% 29.61 in 7.0 mi NE 6.9 mph - N/A   Overcast
5:16 PM 42.8 °F 39.3 °F 42.8 °F 100% 29.61 in 7.0 mi ENE 5.8 mph - N/A   Overcast
5:36 PM 42.8 °F 37.5 °F 42.8 °F 100% 29.60 in 7.0 mi NNE 9.2 mph - N/A   Overcast
5:56 PM 42.8 °F 38.6 °F 42.8 °F 100% 29.61 in 7.0 mi NE 6.9 mph 16.1 mph N/A   Overcast
6:16 PM 42.8 °F 36.2 °F 41.0 °F 93% 29.60 in 7.0 mi NNE 12.7 mph 23.0 mph N/A   Overcast
6:36 PM 42.8 °F 37.5 °F 41.0 °F 93% 29.61 in 8.0 mi NNE 9.2 mph 23.0 mph N/A   Overcast
6:56 PM 42.8 °F 37.5 °F 41.0 °F 93% 29.60 in 8.0 mi NE 9.2 mph 16.1 mph N/A   Overcast
7:16 PM 42.8 °F 38.6 °F 41.0 °F 93% 29.62 in 10.0 mi NNE 6.9 mph 18.4 mph N/A   Overcast
7:36 PM 42.8 °F 40.1 °F 41.0 °F 93% 29.61 in 10.0 mi NNW 4.6 mph - N/A   Overcast
7:56 PM 42.8 °F 39.3 °F 41.0 °F 93% 29.62 in 10.0 mi NNE 5.8 mph - N/A   Overcast
8:16 PM 42.8 °F 35.8 °F 41.0 °F 93% 29.60 in 10.0 mi NNE 13.8 mph 24.2 mph N/A   Overcast
8:36 PM 42.8 °F 37.5 °F 41.0 °F 93% 29.61 in 10.0 mi NE 9.2 mph 24.2 mph N/A   Overcast
8:56 PM 42.8 °F 37.0 °F 41.0 °F 93% 29.60 in 10.0 mi NE 10.4 mph 25.3 mph N/A   Overcast
9:16 PM 42.8 °F 36.6 °F 41.0 °F 93% 29.60 in 10.0 mi NE 11.5 mph 24.2 mph N/A   Overcast
9:36 PM 42.8 °F 36.2 °F 41.0 °F 93% 29.60 in 10.0 mi NE 12.7 mph 21.9 mph N/A   Overcast
9:56 PM 42.8 °F 38.6 °F 41.0 °F 93% 29.60 in 7.0 mi NE 6.9 mph 23.0 mph N/A   Overcast
10:16 PM 42.8 °F 37.0 °F 41.0 °F 93% 29.60 in 8.0 mi NE 10.4 mph 24.2 mph N/A   Overcast
10:36 PM 42.8 °F 37.5 °F 41.0 °F 93% 29.60 in 7.0 mi NE 9.2 mph 21.9 mph N/A   Overcast
10:56 PM 42.8 °F 37.0 °F 41.0 °F 93% 29.60 in 8.0 mi NE 10.4 mph 19.6 mph N/A   Overcast
11:16 PM 42.8 °F 35.8 °F 41.0 °F 93% 29.61 in 9.0 mi NE 13.8 mph 24.2 mph N/A   Overcast
11:36 PM 42.8 °F 37.5 °F 41.0 °F 93% 29.60 in 9.0 mi NE 9.2 mph 20.7 mph N/A   Overcast
11:56 PM 42.8 °F 36.2 °F 41.0 °F 93% 29.61 in 10.0 mi NE 12.7 mph 28.8 mph N/A   Overcast